Location: Buffign�court
(47.8126°N, 6.0176°E)
Time: 02:44:46
(UTC+00:00)

Cosmos 1844 Rocket - Pass Details

Date: 16 June 2021
Orbit: 823 x 846 km, 71.0° (Epoch: 04 August)

Event Time Altitude Azimuth Distance (km) Brightness Sun altitude
Rises 22:18:59 0° 323° (NW) 3,411 7.3 -16.7°
Reaches altitude 10° 22:21:46 10° 312° (NW) 2,474 6.0 -16.8°
Maximum altitude 22:26:24 27° 257° (WSW) 1,585 4.2 -17.1°
Enters shadow 22:29:46 16° 211° (SSW) 2,094 4.4 -17.2°
